| time (UTC) | temp F | wind direction | speed MPH | gust MPH | rain 1hr in | rain 24hr in | rain mn in | humidity % | barometer mb |
| 20260509210925 | 56 | 181 | 0.0 | 1.0 | 0.13 | 0.99 | 0.99 | 91 | 1027.8 |
| 20260509205925 | 56 | 180 | 0.0 | 0.0 | 0.23 | 0.99 | 0.98 | 91 | 1027.7 |
| 20260509205024 | 56 | 67 | 0.0 | 1.0 | 0.28 | 0.97 | 0.97 | 91 | 1027.6 |
| 20260509203027 | 57 | 315 | 0.0 | 0.0 | 0.39 | 0.95 | 0.94 | 91 | 1027.7 |
| 20260509202024 | 56 | 315 | 0.0 | 0.0 | 0.42 | 0.92 | 0.92 | 91 | 1027.9 |
| 20260509201025 | 56 | 157 | 0.0 | 1.0 | 0.41 | 0.87 | 0.86 | 90 | 1028.1 |
| 20260509200025 | 57 | 292 | 0.0 | 0.0 | 0.40 | 0.77 | 0.76 | 90 | 1028.0 |
| 20260509195027 | 56 | 77 | 0.0 | 1.0 | 0.37 | 0.68 | 0.67 | 90 | 1028.2 |
| 20260509193126 | 56 | 228 | 0.0 | 2.0 | 0.47 | 0.56 | 0.56 | 89 | 1028.2 |
| 20260509191125 | 56 | 351 | 0.0 | 2.0 | 0.46 | 0.46 | 0.46 | 88 | 1028.3 |
| 20260509184225 | 57 | 324 | 0.0 | 2.0 | 0.21 | 0.21 | 0.20 | 83 | 1028.3 |
| 20260509183225 | 58 | 181 | 1.0 | 2.0 | 0.10 | 0.10 | 0.09 | 81 | 1028.1 |
| 20260509182324 | 60 | 277 | 0.0 | 0.0 | 0.03 | 0.03 | 0.03 | 77 | 1028.1 |
| 20260509180327 | 63 | 165 | 0.0 | 2.0 | 0.00 | 0.00 | 0.00 | 69 | 1027.7 |
| 20260509174325 | 64 | 265 | 1.0 | 4.0 | 0.00 | 0.00 | 0.00 | 67 | 1027.3 |
| 20260509172325 | 64 | 196 | 1.0 | 3.0 | 0.00 | 0.00 | 0.00 | 67 | 1027.3 |
| 20260509171424 | 63 | 225 | 0.0 | 3.0 | 0.00 | 0.00 | 0.00 | 68 | 1027.4 |
| 20260509170425 | 63 | 180 | 0.0 | 1.0 | 0.00 | 0.00 | 0.00 | 68 | 1027.5 |
| 20260509165425 | 63 | 143 | 1.0 | 2.0 | 0.00 | 0.00 | 0.00 | 68 | 1027.8 |
| 20260509164524 | 62 | 202 | 1.0 | 2.0 | 0.00 | 0.00 | 0.00 | 68 | 1027.8 |
| 20260509162524 | 64 | 202 | 0.0 | 2.0 | 0.00 | 0.00 | 0.00 | 66 | 1028.1 |
| 20260509161524 | 64 | 170 | 0.0 | 1.0 | 0.00 | 0.00 | 0.00 | 66 | 1028.1 |
| 20260509161427 | 64 | 218 | 0.0 | 2.0 | 0.00 | 0.00 | 0.00 | 66 | 1028.1 |
| 20260509160424 | 64 | 180 | 1.0 | 2.0 | 0.00 | 0.00 | 0.00 | 66 | 1028.3 |
| 20260509155427 | 64 | 196 | 0.0 | 1.0 | 0.00 | 0.00 | 0.00 | 66 | 1028.4 |
| 20260509153624 | 63 | 266 | 0.0 | 1.0 | 0.00 | 0.00 | 0.00 | 68 | 1028.5 |
| 20260509152625 | 62 | 179 | 0.0 | 3.0 | 0.00 | 0.00 | 0.00 | 69 | 1028.6 |
| 20260509145725 | 62 | 202 | 1.0 | 3.0 | 0.00 | 0.00 | 0.00 | 67 | 1028.9 |
| 20260509143726 | 61 | 202 | 0.0 | 3.0 | 0.00 | 0.00 | 0.00 | 68 | 1028.8 |
| 20260509141825 | 61 | 202 | 1.0 | 2.0 | 0.00 | 0.00 | 0.00 | 68 | 1028.8 |
| 20260509140826 | 62 | 90 | 0.0 | 1.0 | 0.00 | 0.00 | 0.00 | 68 | 1028.7 |
| 20260509135924 | 61 | 202 | 0.0 | 2.0 | 0.00 | 0.00 | 0.00 | 69 | 1028.8 |
| 20260509134925 | 60 | 202 | 0.0 | 1.0 | 0.00 | 0.00 | 0.00 | 71 | 1029.0 |
| 20260509133925 | 59 | 200 | 0.0 | 1.0 | 0.00 | 0.00 | 0.00 | 72 | 1029.0 |
| 20260509132927 | 58 | 202 | 0.0 | 1.0 | 0.00 | 0.00 | 0.00 | 73 | 1028.9 |
| 20260509131924 | 58 | 180 | 0.0 | 1.0 | 0.00 | 0.00 | 0.00 | 73 | 1029.1 |
| 20260509130927 | 58 | 180 | 0.0 | 0.0 | 0.00 | 0.00 | 0.00 | 74 | 1029.2 |
| 20260509130023 | 58 | 180 | 0.0 | 2.0 | 0.00 | 0.00 | 0.00 | 76 | 1029.2 |
| 20260509125025 | 58 | 202 | 0.0 | 1.0 | 0.00 | 0.00 | 0.00 | 79 | 1029.1 |
| 20260509123125 | 56 | 157 | 0.0 | 0.0 | 0.00 | 0.00 | 0.00 | 83 | 1029.3 |
| 20260509121126 | 55 | 157 | 0.0 | 0.0 | 0.00 | 0.00 | 0.00 | 85 | 1029.3 |
| 20260509120125 | 54 | 157 | 0.0 | 0.0 | 0.00 | 0.00 | 0.00 | 86 | 1029.3 |
| 20260509115126 | 54 | 157 | 0.0 | 0.0 | 0.00 | 0.00 | 0.00 | 86 | 1029.4 |
| 20260509114225 | 54 | 157 | 0.0 | 0.0 | 0.00 | 0.00 | 0.00 | 86 | 1029.4 |
| 20260509113225 | 53 | 157 | 0.0 | 0.0 | 0.00 | 0.00 | 0.00 | 87 | 1029.4 |
| 20260509112225 | 53 | 157 | 0.0 | 0.0 | 0.00 | 0.00 | 0.00 | 88 | 1029.5 |
| 20260509105326 | 52 | 157 | 0.0 | 0.0 | 0.00 | 0.00 | 0.00 | 88 | 1029.3 |
| 20260509104424 | 52 | 157 | 0.0 | 0.0 | 0.00 | 0.00 | 0.00 | 89 | 1029.2 |
| 20260509102524 | 52 | 157 | 0.0 | 0.0 | 0.00 | 0.00 | 0.00 | 88 | 1028.9 |
| 20260509101526 | 52 | 157 | 0.0 | 0.0 | 0.00 | 0.00 | 0.00 | 88 | 1028.8 |
| 20260509100524 | 52 | 157 | 0.0 | 0.0 | 0.00 | 0.00 | 0.00 | 88 | 1028.8 |
| 20260509095526 | 52 | 157 | 0.0 | 0.0 | 0.00 | 0.00 | 0.00 | 88 | 1028.8 |
| 20260509094528 | 51 | 247 | 0.0 | 0.0 | 0.00 | 0.00 | 0.00 | 88 | 1028.7 |
| 20260509093624 | 51 | 247 | 0.0 | 0.0 | 0.00 | 0.00 | 0.00 | 87 | 1028.9 |
| 20260509092624 | 51 | 247 | 0.0 | 0.0 | 0.00 | 0.00 | 0.00 | 87 | 1028.7 |
| 20260509091626 | 51 | 247 | 0.0 | 0.0 | 0.00 | 0.00 | 0.00 | 87 | 1028.7 |
| 20260509090627 | 51 | 247 | 0.0 | 0.0 | 0.00 | 0.00 | 0.00 | 87 | 1028.5 |
| 20260509084724 | 51 | 247 | 0.0 | 0.0 | 0.00 | 0.00 | 0.00 | 87 | 1028.9 |
| 20260509083723 | 51 | 247 | 0.0 | 0.0 | 0.00 | 0.00 | 0.00 | 87 | 1029.0 |
| 20260509082725 | 51 | 247 | 0.0 | 0.0 | 0.00 | 0.00 | 0.00 | 87 | 1029.1 |
| 20260509081725 | 51 | 247 | 0.0 | 0.0 | 0.00 | 0.00 | 0.00 | 87 | 1029.1 |
| 20260509080726 | 51 | 247 | 0.0 | 0.0 | 0.00 | 0.00 | 0.00 | 86 | 1029.2 |
| 20260509074825 | 51 | 247 | 0.0 | 0.0 | 0.00 | 0.00 | 0.00 | 87 | 1028.8 |
| 20260509073826 | 51 | 247 | 0.0 | 0.0 | 0.00 | 0.00 | 0.00 | 86 | 1028.7 |
| 20260509072923 | 51 | 247 | 0.0 | 0.0 | 0.00 | 0.00 | 0.00 | 86 | 1028.7 |
| 20260509071926 | 51 | 247 | 0.0 | 0.0 | 0.00 | 0.00 | 0.00 | 85 | 1028.6 |
| 20260509070927 | 51 | 247 | 0.0 | 0.0 | 0.00 | 0.00 | 0.00 | 85 | 1029.0 |
| 20260509065926 | 51 | 247 | 0.0 | 0.0 | 0.00 | 0.00 | 0.00 | 84 | 1028.9 |
| 20260509064926 | 51 | 247 | 0.0 | 0.0 | 0.00 | 0.00 | 0.00 | 84 | 1029.2 |
| 20260509063926 | 51 | 247 | 0.0 | 0.0 | 0.00 | 0.00 | 0.00 | 83 | 1029.4 |
| 20260509062925 | 51 | 247 | 0.0 | 0.0 | 0.00 | 0.00 | 0.00 | 83 | 1029.7 |
| 20260509061927 | 51 | 247 | 0.0 | 0.0 | 0.00 | 0.00 | 0.00 | 83 | 1029.5 |
| 20260509060925 | 50 | 247 | 0.0 | 0.0 | 0.00 | 0.00 | 0.00 | 83 | 1029.4 |
| 20260509055024 | 50 | 247 | 0.0 | 0.0 | 0.00 | 0.00 | 0.00 | 84 | 1029.6 |
| 20260509054024 | 50 | 247 | 0.0 | 0.0 | 0.00 | 0.00 | 0.00 | 84 | 1029.4 |
| 20260509052025 | 49 | 247 | 0.0 | 0.0 | 0.00 | 0.00 | 0.00 | 84 | 1029.2 |
| 20260509051026 | 49 | 247 | 0.0 | 0.0 | 0.00 | 0.00 | 0.00 | 83 | 1029.3 |
| 20260509050025 | 49 | 247 | 0.0 | 0.0 | 0.00 | 0.00 | 0.00 | 82 | 1029.3 |
| 20260509045123 | 49 | 247 | 0.0 | 0.0 | 0.00 | 0.00 | 0.00 | 81 | 1029.4 |
| 20260509044125 | 50 | 247 | 0.0 | 0.0 | 0.00 | 0.00 | 0.00 | 79 | 1029.3 |
| 20260509043125 | 51 | 247 | 0.0 | 0.0 | 0.00 | 0.00 | 0.00 | 78 | 1029.3 |
| 20260509042224 | 51 | 247 | 0.0 | 0.0 | 0.00 | 0.00 | 0.00 | 77 | 1029.3 |
| 20260509041227 | 51 | 247 | 0.0 | 0.0 | 0.00 | 0.00 | 0.00 | 77 | 1029.6 |
| 20260509040324 | 52 | 247 | 0.0 | 0.0 | 0.00 | 0.00 | 0.00 | 77 | 1029.4 |
| 20260509035335 | 52 | 247 | 0.0 | 0.0 | 0.00 | 0.00 | 0.00 | 78 | 1029.5 |
| 20260509034337 | 52 | 247 | 0.0 | 0.0 | 0.00 | 0.00 | 0.00 | 78 | 1029.6 |
| 20260509033338 | 52 | 247 | 0.0 | 0.0 | 0.00 | 0.00 | 0.00 | 78 | 1029.7 |
| 20260509031437 | 51 | 247 | 0.0 | 0.0 | 0.00 | 0.00 | 0.00 | 78 | 1029.8 |
| 20260509025538 | 51 | 247 | 0.0 | 0.0 | 0.00 | 0.00 | 0.00 | 79 | 1029.8 |
| 20260509024637 | 51 | 247 | 0.0 | 0.0 | 0.00 | 0.00 | 0.00 | 79 | 1029.5 |
| 20260509023639 | 51 | 247 | 0.0 | 0.0 | 0.00 | 0.00 | 0.00 | 78 | 1029.7 |
| 20260509022638 | 51 | 247 | 0.0 | 0.0 | 0.00 | 0.00 | 0.00 | 78 | 1029.7 |
| 20260509021639 | 51 | 247 | 0.0 | 0.0 | 0.00 | 0.00 | 0.00 | 78 | 1029.6 |
| 20260509020638 | 51 | 247 | 0.0 | 0.0 | 0.00 | 0.00 | 0.00 | 77 | 1029.6 |
| 20260509015638 | 51 | 247 | 0.0 | 0.0 | 0.00 | 0.00 | 0.00 | 77 | 1029.5 |
| 20260509013735 | 51 | 247 | 0.0 | 0.0 | 0.00 | 0.00 | 0.00 | 76 | 1029.2 |
| 20260509012738 | 51 | 247 | 0.0 | 0.0 | 0.00 | 0.00 | 0.00 | 75 | 1029.3 |
| 20260509011835 | 51 | 247 | 0.0 | 0.0 | 0.00 | 0.00 | 0.00 | 73 | 1029.2 |
| 20260509010837 | 51 | 247 | 0.0 | 0.0 | 0.00 | 0.00 | 0.00 | 73 | 1029.0 |
| 20260509005838 | 51 | 247 | 0.0 | 0.0 | 0.00 | 0.00 | 0.00 | 71 | 1028.9 |
| 20260509004838 | 52 | 247 | 0.0 | 0.0 | 0.00 | 0.00 | 0.00 | 70 | 1028.9 |
| 20260509003837 | 52 | 247 | 0.0 | 0.0 | 0.00 | 0.00 | 0.00 | 68 | 1028.6 |
| 20260509002838 | 53 | 247 | 0.0 | 0.0 | 0.00 | 0.00 | 0.00 | 66 | 1028.6 |
| 20260509000838 | 55 | 247 | 0.0 | 0.0 | 0.00 | 0.00 | 0.00 | 64 | 1028.5 |
| 20260508235838 | 56 | 247 | 0.0 | 0.0 | 0.00 | 0.00 | 0.00 | 63 | 1028.3 |
| 20260508233840 | 57 | 315 | 0.0 | 0.0 | 0.00 | 0.00 | 0.00 | 58 | 1028.2 |
| 20260508232936 | 57 | 315 | 0.0 | 0.0 | 0.00 | 0.00 | 0.00 | 54 | 1027.9 |
| 20260508231938 | 57 | 315 | 0.0 | 1.0 | 0.00 | 0.00 | 0.00 | 52 | 1027.7 |
| 20260508230938 | 57 | 292 | 0.0 | 1.0 | 0.00 | 0.00 | 0.00 | 51 | 1027.7 |
| 20260508225938 | 58 | 277 | 2.0 | 3.0 | 0.00 | 0.00 | 0.00 | 51 | 1027.7 |
| 20260508224938 | 58 | 292 | 2.0 | 3.0 | 0.00 | 0.00 | 0.00 | 51 | 1027.7 |
| 20260508223937 | 59 | 316 | 1.0 | 2.0 | 0.00 | 0.00 | 0.00 | 51 | 1027.7 |
| 20260508222938 | 59 | 256 | 0.0 | 1.0 | 0.00 | 0.00 | 0.00 | 50 | 1027.6 |
| 20260508220937 | 59 | 237 | 3.0 | 7.0 | 0.00 | 0.00 | 0.00 | 52 | 1027.7 |
| 20260508215936 | 58 | 292 | 1.0 | 2.0 | 0.00 | 0.00 | 0.00 | 53 | 1027.8 |
| 20260508214937 | 58 | 270 | 0.0 | 0.0 | 0.00 | 0.00 | 0.00 | 53 | 1027.7 |
| 20260508214036 | 57 | 289 | 1.0 | 2.0 | 0.00 | 0.00 | 0.00 | 53 | 1027.7 |
| 20260508213038 | 57 | 292 | 3.0 | 3.0 | 0.00 | 0.00 | 0.00 | 53 | 1027.9 |
| 20260508212038 | 57 | 292 | 0.0 | 1.0 | 0.00 | 0.00 | 0.00 | 52 | 1027.9 |